Location: Plzen
(49.7500°N, 13.3670°E)
Time: 02:47:21
(UTC+01:00)

ISS - Pass Details

Date: 05 October 2020
Orbit: 417 x 420 km, 51.6° (Epoch: 25 October)

Event Time Altitude Azimuth Distance (km) Brightness Sun altitude
Rises 19:32:20 0° 288° (WNW) 2,369 1.9 -10.0°
Reaches altitude 10° 19:34:33 10° 278° (W) 1,503 0.7 -10.3°
Maximum altitude 19:37:38 33° 213° (SSW) 726 -2.3 -10.8°
Drops below altitude 10° 19:40:41 10° 147° (SSE) 1,496 -1.3 -11.3°
Enters shadow 19:41:03 - 145° (SE) 1,629 -1.2 -11.4°
